TimeCDT,TemperatureF,Dew PointF,Humidity,Sea Level PressureIn,VisibilityMPH,Wind Direction,Wind SpeedMPH,Gust SpeedMPH,PrecipitationIn,Events,Conditions,WindDirDegrees,DateUTC
12:52 AM,59.0,50.0,72,29.99,8.0,Calm,Calm,-,N/A,,Clear,0,2013-05-08 05:52:00
1:52 AM,61.0,46.0,58,29.99,10.0,Calm,Calm,-,N/A,,Clear,0,2013-05-08 06:52:00
2:52 AM,57.0,46.0,67,29.98,10.0,East,3.5,-,N/A,,Clear,80,2013-05-08 07:52:00
3:52 AM,54.0,46.0,75,29.99,8.0,Calm,Calm,-,N/A,,Clear,0,2013-05-08 08:52:00
4:52 AM,55.0,46.9,74,29.99,8.0,Calm,Calm,-,N/A,,Clear,0,2013-05-08 09:52:00
5:52 AM,53.1,46.0,77,30.01,6.0,Calm,Calm,-,N/A,,Haze,0,2013-05-08 10:52:00
6:52 AM,55.0,46.9,74,30.02,5.0,Calm,Calm,-,N/A,,Haze,0,2013-05-08 11:52:00
7:52 AM,63.0,51.1,65,30.04,7.0,Calm,Calm,-,N/A,,Clear,0,2013-05-08 12:52:00
8:52 AM,70.0,51.1,51,30.03,10.0,Calm,Calm,-,N/A,,Clear,0,2013-05-08 13:52:00
9:52 AM,73.9,48.0,40,30.03,10.0,Calm,Calm,-,N/A,,Partly Cloudy,0,2013-05-08 14:52:00
10:52 AM,75.9,46.9,36,30.03,10.0,Calm,Calm,-,N/A,,Clear,0,2013-05-08 15:52:00
11:52 AM,78.1,46.0,32,30.02,10.0,SSW,8.1,-,N/A,,Clear,200,2013-05-08 16:52:00
12:52 PM,78.1,46.9,33,30.00,10.0,Variable,5.8,-,N/A,,Scattered Clouds,0,2013-05-08 17:52:00
1:52 PM,77.0,45.0,32,29.99,10.0,SSE,5.8,-,N/A,,Partly Cloudy,160,2013-05-08 18:52:00
2:52 PM,79.0,46.9,32,29.99,10.0,SW,8.1,16.1,N/A,,Clear,230,2013-05-08 19:52:00
3:52 PM,77.0,46.0,33,29.97,10.0,SW,8.1,-,N/A,,Partly Cloudy,230,2013-05-08 20:52:00
4:52 PM,77.0,45.0,32,29.97,10.0,Calm,Calm,-,N/A,,Clear,0,2013-05-08 21:52:00
5:52 PM,75.9,46.9,36,29.97,10.0,SW,5.8,-,N/A,,Partly Cloudy,220,2013-05-08 22:52:00
6:52 PM,75.9,46.0,35,29.96,10.0,Calm,Calm,-,N/A,,Mostly Cloudy,0,2013-05-08 23:52:00
7:52 PM,69.1,54.0,58,29.97,10.0,WNW,11.5,-,0.00,,Mostly Cloudy,290,2013-05-09 00:52:00
8:52 PM,66.0,55.9,70,29.98,10.0,WNW,4.6,-,0.00,,Overcast,290,2013-05-09 01:52:00
9:52 PM,64.0,55.9,75,29.98,10.0,North,6.9,-,N/A,,Overcast,10,2013-05-09 02:52:00
10:52 PM,63.0,55.9,78,29.97,10.0,NNE,5.8,-,0.00,,Overcast,20,2013-05-09 03:52:00
11:52 PM,63.0,55.9,78,29.96,10.0,Calm,Calm,-,N/A,,Overcast,0,2013-05-09 04:52:00